Location: Malcolm X Square
(37.7810°N, 122.4297°W)
Time: 23:33:44
(UTC+00:00)

Cosmos 1666 Rocket - Pass Details

Date: 13 April 2024
Orbit: 600 x 630 km, 82.5° (Epoch: 21 May)

Event Time Altitude Azimuth Distance (km) Brightness Sun altitude
Rises 12:36:49 0° 342° (NNW) 2,925 7.1 -12.1°
Reaches altitude 10° 12:39:13 10° 334° (NNW) 2,011 6.1 -11.6°
Maximum altitude 12:43:14 34° 269° (W) 1,033 4.2 -10.9°
Drops below altitude 10° 12:47:13 10° 205° (SSW) 1,985 5.7 -10.2°
Sets 12:49:34 0° 196° (SSW) 2,881 6.6 -9.7°
